Погода в Змиёвке

Россия / Орловская область     52°40′00″N   36°22′31″E
темп.,
°C
ветер,
м/с
пор.,
м/с
влажн.,
%
обл.,
%
осадки,
мм/ч
давл.,
гПа
погр.,
м
23 июня, ср
ср2300:00+21в47795 0.0 1019116
03:00+20в46784 0.0 101994
06:00+20всв488451 0.0 1020141
09:00+25в58715 0.0 1020364
12:00+28в57615 0.0 1020766
15:00+29в56595 0.0 10191178
18:00+28в477016 0.0 1019496
21:00+24всв348677 0.0 102058
24 июня, чт
чт2400:00+22в35924 0.0 102072
03:00+21вюв34925 0.0 102051
06:00+22в36895 0.0 1020126
09:00+26вюв457350 0.0 1020407
12:00+29в336199 0.0 1020769
15:00+30в335752 0.0 10191172
18:00+29в24675 0.0 1019623
21:00+24вюв23795 0.0 101921
25 июня, пт
пт2500:00+22вюв22795 0.0 101911
03:00+21вюв22845 0.0 101911
06:00+22в22864 0.0 101849
09:00+26в33715 0.0 1018415
12:00+29в33605 0.0 10171363
15:00+30в12527 0.4 10172082
18:00+29юв34640 0.0 1015231
21:00+24ююз11731 0.1 101511
26 июня, сб
сб2600:00+22юв11800 0.1 101511
03:00+20вюв128861 0.1 101511
06:00+22вюв12865 0.0 101549
09:00+26юв237228 0.0 1015370
12:00+29юв336188 0.0 10141007
15:00+30ююв225674 0.0 10141550
18:00+29юв34665 0.0 1013397
21:00+24юв228097 0.4 101320
27 июня, вс
вс2700:00+22юв338458 0.0 101241
03:00+21вюв22875 0.0 101319
06:00+21юв23885 0.8 101367
09:00+26юв35725 0.8 1013410
12:00+29юв34585 0.0 10131026
15:00+30вюв33535 0.0 10121526
18:00+23ю5978100 0.6 1012264
21:00+21ююз22747 0.6 101220